Regional Weather Roundup
Issued by NWS Goodland, KS

Home | Current Version | Previous Version | Text Only | Print | Product List | Glossary On
Versions: 1 2 3 4 5 6 7 8 9 10 11 12 13 14 15 16 17 18 19 20 21 22 23 24 25 26 27 28 29 30 31 32 33 34 35 36 37 38 39 40 41 42 43 44 45 46 47 48 49 50
000
ASUS43 KGLD 160408
RWRGLD

GOODLAND FORECAST AREA HOURLY WEATHER ROUNDUP
NATIONAL WEATHER SERVICE GOODLAND KS
900 PM MST FRI DEC 15 2017

...OFFICIAL OBSERVATIONS...

CITY           SKY/WX    TMP DP  RH WIND       PRES   REMARKS
GOODLAND KS    CLOUDY    41  14  33 SW14      29.81F
HILL CITY KS   CLEAR     42  15  33 W9        29.83F
IMPERIAL NEB   CLOUDY    33   9  36 W7        29.78F
MCCOOK NEB     CLOUDY    41  11  29 W10       29.78F
AKRON CO       CLOUDY    43  11  27 SW15      29.81F
BURLINGTON CO  CLOUDY    38  15  39 SW12      29.83F
LIMON CO       CLOUDY    21  11  65 N7        29.88R
$$

...UNOFFICIAL OBSERVATIONS...

CITY           SKY/WX    TMP DP  RH WIND       PRES   REMARKS
COLBY KS       CLOUDY    32  18  55 W7        29.84F
LENORA KS        N/A     42  32  68 SW10        N/A
NORTON KS      CLEAR     36   7  30 SW9       29.80
SHARON SPRINGS   N/A     33  13  44 SW10        N/A
TRENTON NEB      N/A     42  32  68 W6          N/A
KIT CARSON CO    N/A     24   7  49 MISG        N/A
YUMA CO        FAIR      32  10  40 W9        29.80F
$$



USA.gov is the U.S. government's official web portal to all federal, state and local government web resources and services.